Tracking 31028 objects as of 17-Jul-2025
HD Live streaming from Space Station
objects crossing your sky now

STARLINK-5463

Track STARLINK-5463 now!
10-day predictions
STARLINK-5463 is classified as:


NORAD ID: 55673
Int'l Code: 2023-021AX
Perigee: 577.2 km
Apogee: 581.2 km
Inclination: 70.0 °
Period: 96.1 minutes
Semi major axis: 6950 km
RCS: Unknown
Launch date: February 17, 2023
Source: United States (US)
Launch site: AIR FORCE WESTERN TEST RANGE (AFWTR)
Your satellite tracking list
Your tracking list is empty




NASA's NSSDC Master Catalog

Two Line Element Set (TLE):
1 55673U 23021AX  25197.93918294  .00000061  00000-0  12904-4 0  9990
2 55673  70.0000  38.7745 0002814 268.8926  91.1911 14.98328589133977
Source of the keplerian elements: AFSPC